Weather History for Oak Ridge, TN

Change the Weather History Date:

Sunday, February 17, 2013

  Actual Average (KTYS) Record (KTYS)
Temperature  
Mean Temperature 32 °F 43 °F  
Max Temperature 43 °F 53 °F 79 °F (1927)
Min Temperature 21 °F 33 °F -2 °F (1958)
Degree Days  
Heating Degree Days 33 22  
Month to date heating degree days 408  
Since 1 July heating degree days 2670  
Cooling Degree Days 0 0  
Month to date cooling degree days 0  
Year to date cooling degree days 0  
Moisture  
Dew Point 10 °F    
Average Humidity 43    
Maximum Humidity 66    
Minimum Humidity 21    
Precipitation  
Precipitation 0.00 in 0.15 in 2.49 in (1879)
Month to date precipitation 2.58  
Year to date precipitation 6.90  
Snow  
Snow 0.00 in 0.00 in - ()
Month to date snowfall 1.1  
Since 1 July snowfall 4.6  
Snow Depth -    
Sea Level Pressure  
Sea Level Pressure 30.27 in    
Wind  
Wind Speed 3 mph (WSW)    
Max Wind Speed 7 mph    
Max Gust Speed -    
Visibility 10 miles    
Events      
T = Trace of Precipitation, MM = Missing Value Source: NWS Daily Summary

Daily Weather History Graph

Daily Weather History Graph

Search for Another Location

Airport:

Trip Planner

Search our weather history database for the weather conditions in past years. The results will help you decide how hot, cold, wet, or windy it might be!

Date:

Astronomy

Feb. 17, 2013 Rise Set
Actual Time 7:21 AM EST 6:20 PM EST
Civil Twilight 6:55 AM EST 6:46 PM EST
Nautical Twilight 6:25 AM EST 7:16 PM EST
Astronomical Twilight 5:55 AM EST 7:46 PM EST
Moon 11:28 AM EST (2/17) 1:01 AM EST (2/17)
Length of Visible Light 11h 51m
Length of Day
10h 58m
Waxing Crescent, 49% of the Moon is Illuminated
Feb 17
Waxing Crescent
Feb 17
First Quarter
Feb 25
Full
Mar 4
Last Quarter
Mar 11
New

Hourly Weather History & Observations

Time (EST) Temp. Windchill Dew Point Humidity Pressure Visibility Wind Dir Wind Speed Gust Speed Precip Events Conditions
12:53 AM 28.0 °F 22.8 °F 6.1 °F 39% 30.20 in 10.0 mi WNW 4.6 mph - N/A   Partly Cloudy
1:53 AM 28.0 °F 24.2 °F 7.0 °F 41% 30.21 in 10.0 mi West 3.5 mph - N/A   Partly Cloudy
2:53 AM 26.1 °F - 9.0 °F 49% 30.21 in 10.0 mi Calm Calm - N/A   Scattered Clouds
3:53 AM 25.0 °F - 10.9 °F 55% 30.22 in 10.0 mi Calm Calm - N/A   Scattered Clouds
4:53 AM 21.9 °F - 10.9 °F 63% 30.24 in 10.0 mi Calm Calm - N/A   Clear
5:53 AM 21.9 °F - 10.0 °F 60% 30.25 in 10.0 mi Calm Calm - N/A   Clear
6:53 AM 21.9 °F - 10.9 °F 63% 30.27 in 10.0 mi Calm Calm - N/A   Clear
7:53 AM 23.0 °F 18.4 °F 10.9 °F 60% 30.29 in 10.0 mi Variable 3.5 mph - N/A   Clear
8:53 AM 28.0 °F 20.8 °F 12.0 °F 51% 30.31 in 10.0 mi SW 6.9 mph - N/A   Clear
9:53 AM 32.0 °F 26.4 °F 12.0 °F 44% 30.31 in 10.0 mi SSW 5.8 mph - N/A   Clear
10:53 AM 33.1 °F 28.7 °F 10.9 °F 40% 30.32 in 10.0 mi SSW 4.6 mph - N/A   Clear
11:53 AM 36.0 °F - 10.0 °F 34% 30.31 in 10.0 mi Calm Calm - N/A   Clear
12:53 PM 39.9 °F 35.8 °F 8.1 °F 27% 30.29 in 10.0 mi Variable 5.8 mph - N/A   Clear
1:53 PM 41.0 °F 36.4 °F 8.1 °F 26% 30.26 in 10.0 mi Variable 6.9 mph - N/A   Clear
2:53 PM 42.1 °F 38.4 °F 7.0 °F 24% 30.25 in 10.0 mi WSW 5.8 mph - N/A   Clear
3:53 PM 43.0 °F 39.5 °F 5.0 °F 21% 30.25 in 10.0 mi Variable 5.8 mph - N/A   Clear
4:53 PM 43.0 °F 38.8 °F 7.0 °F 23% 30.25 in 10.0 mi Variable 6.9 mph - N/A   Clear
5:53 PM 41.0 °F - 7.0 °F 25% 30.26 in 10.0 mi Calm Calm - N/A   Clear
6:53 PM 39.0 °F - 7.0 °F 27% 30.28 in 10.0 mi Calm Calm - N/A   Clear
7:53 PM 34.0 °F - 12.0 °F 40% 30.29 in 10.0 mi Calm Calm - N/A   Clear
8:53 PM 30.9 °F - 14.0 °F 50% 30.30 in 10.0 mi Calm Calm - N/A   Clear
9:53 PM 30.0 °F - 15.1 °F 54% 30.31 in 10.0 mi Calm Calm - N/A   Clear
10:53 PM 28.0 °F - 16.0 °F 61% 30.31 in 10.0 mi Calm Calm - N/A   Clear
11:53 PM 27.0 °F - 17.1 °F 66% 30.31 in 10.0 mi Calm Calm - N/A   Clear